Stündliche Wetter La Calera

Heute, 16 Mai, Sonntag

Zeit Temperatur Niederschläge Wind Luftdruck Luftfeuchtigkeit
00:00 +11°C° 0 mm 1 m/S 548 mmHg 96%
01:00 +11°C° 0 mm 1 m/S 547 mmHg 96%
02:00 +10°C° 0 mm 1 m/S 547 mmHg 96%
03:00 +10°C° 0 mm 1 m/S 547 mmHg 96%
04:00 +10°C° 0 mm 1 m/S 547 mmHg 96%
05:00 +11°C° 0 mm 1 m/S 547 mmHg 95%
06:00 +10°C° 0 mm 0 m/S 548 mmHg 94%
07:00 +11°C° 0 mm 0 m/S 548 mmHg 93%
08:00 +13°C° 0.2 mm 1 m/S 549 mmHg 90%
09:00 +14°C° 0.2 mm 1 m/S 549 mmHg 87%
10:00 +15°C° 0.2 mm 1 m/S 550 mmHg 84%
11:00 +15°C° 0.6 mm 1 m/S 550 mmHg 84%
12:00 +15°C° 0.6 mm 1 m/S 549 mmHg 84%
13:00 +16°C° 0.6 mm 1 m/S 549 mmHg 84%
14:00 +15°C° 0.6 mm 1 m/S 548 mmHg 85%
15:00 +15°C° 0.6 mm 1 m/S 548 mmHg 85%
16:00 +15°C° 0.6 mm 1 m/S 548 mmHg 86%
17:00 +14°C° 0.3 mm 1 m/S 548 mmHg 89%
18:00 +13°C° 0.3 mm 1 m/S 548 mmHg 92%
19:00 +12°C° 0.3 mm 1 m/S 548 mmHg 95%
20:00 +12°C° 0.1 mm 1 m/S 548 mmHg 95%
21:00 +12°C° 0.1 mm 1 m/S 548 mmHg 96%
22:00 +12°C° 0.1 mm 1 m/S 549 mmHg 97%
23:00 +12°C° 0 mm 1 m/S 548 mmHg 97%

Morgen, 17 Mai, Montag

Zeit Temperatur Niederschläge Wind Luftdruck Luftfeuchtigkeit
00:00 +11°C° 0 mm 0 m/S 548 mmHg 97%
01:00 +11°C° 0 mm 0 m/S 548 mmHg 97%
02:00 +11°C° 0.1 mm 0 m/S 547 mmHg 96%
03:00 +11°C° 0.1 mm 0 m/S 547 mmHg 96%
04:00 +11°C° 0.1 mm 0 m/S 547 mmHg 96%
05:00 +11°C° 0.3 mm 0 m/S 548 mmHg 96%
06:00 +11°C° 0.3 mm 0 m/S 548 mmHg 96%
07:00 +11°C° 0.3 mm 0 m/S 548 mmHg 97%
08:00 +11°C° 0.4 mm 0 m/S 549 mmHg 96%
09:00 +11°C° 0.4 mm 0 m/S 549 mmHg 96%
10:00 +11°C° 0.4 mm 0 m/S 549 mmHg 96%
11:00 +13°C° 0.2 mm 1 m/S 549 mmHg 93%
12:00 +14°C° 0.2 mm 1 m/S 549 mmHg 90%
13:00 +14°C° 0.2 mm 1 m/S 549 mmHg 88%
14:00 +14°C° 0.6 mm 1 m/S 548 mmHg 88%
15:00 +14°C° 0.6 mm 1 m/S 548 mmHg 88%
16:00 +14°C° 0.6 mm 1 m/S 548 mmHg 89%
17:00 +13°C° 0.4 mm 1 m/S 548 mmHg 91%
18:00 +13°C° 0.4 mm 1 m/S 548 mmHg 93%
19:00 +12°C° 0.4 mm 1 m/S 548 mmHg 96%
20:00 +12°C° 0.1 mm 1 m/S 549 mmHg 96%
21:00 +12°C° 0.1 mm 1 m/S 549 mmHg 96%
22:00 +12°C° 0.1 mm 1 m/S 549 mmHg 96%
23:00 +11°C° 0 mm 1 m/S 549 mmHg 96%

übermorgen, 18 Mai, Dienstag

Zeit Temperatur Niederschläge Wind Luftdruck Luftfeuchtigkeit
00:00 +11°C° 0 mm 1 m/S 548 mmHg 96%
01:00 +10°C° 0 mm 0 m/S 548 mmHg 96%
02:00 +11°C° 0 mm 1 m/S 548 mmHg 96%
03:00 +10°C° 0 mm 1 m/S 547 mmHg 96%
04:00 +10°C° 0 mm 1 m/S 547 mmHg 96%
05:00 +11°C° 0.2 mm 1 m/S 548 mmHg 96%
06:00 +11°C° 0.2 mm 1 m/S 548 mmHg 95%
07:00 +11°C° 0.2 mm 1 m/S 549 mmHg 95%
08:00 +12°C° 0.5 mm 1 m/S 549 mmHg 93%
09:00 +12°C° 0.5 mm 1 m/S 550 mmHg 92%
10:00 +13°C° 0.5 mm 1 m/S 550 mmHg 91%
11:00 +13°C° 0.2 mm 1 m/S 550 mmHg 88%
12:00 +13°C° 0.2 mm 1 m/S 549 mmHg 86%
13:00 +14°C° 0.2 mm 1 m/S 549 mmHg 84%
14:00 +14°C° 0.1 mm 1 m/S 549 mmHg 82%
15:00 +14°C° 0.1 mm 1 m/S 548 mmHg 80%
16:00 +15°C° 0.1 mm 1 m/S 548 mmHg 77%
17:00 +13°C° 0.1 mm 1 m/S 548 mmHg 83%
18:00 +12°C° 0.1 mm 1 m/S 548 mmHg 88%
19:00 +11°C° 0.1 mm 1 m/S 548 mmHg 93%
20:00 +11°C° 0 mm 1 m/S 548 mmHg 93%
21:00 +10°C° 0 mm 1 m/S 548 mmHg 93%
22:00 +10°C° 0 mm 1 m/S 549 mmHg 93%
23:00 +10°C° 0 mm 1 m/S 548 mmHg 93%

19 Mai, Mittwoch

Zeit Temperatur Niederschläge Wind Luftdruck Luftfeuchtigkeit
00:00 +10°C° 0 mm 1 m/S 548 mmHg 94%
01:00 +10°C° 0 mm 1 m/S 548 mmHg 94%
02:00 +9°C° 0 mm 0 m/S 548 mmHg 94%
03:00 +9°C° 0 mm 0 m/S 547 mmHg 94%
04:00 +9°C° 0 mm 0 m/S 547 mmHg 94%
05:00 +10°C° 0 mm 0 m/S 548 mmHg 92%
06:00 +10°C° 0 mm 0 m/S 548 mmHg 91%
07:00 +11°C° 0 mm 0 m/S 549 mmHg 90%
08:00 +13°C° 0.1 mm 1 m/S 549 mmHg 86%
09:00 +14°C° 0.1 mm 1 m/S 550 mmHg 82%
10:00 +15°C° 0.1 mm 1 m/S 550 mmHg 77%
11:00 +16°C° 0.4 mm 1 m/S 550 mmHg 74%
12:00 +18°C° 0.4 mm 1 m/S 550 mmHg 70%
13:00 +19°C° 0.4 mm 1 m/S 550 mmHg 67%
14:00 +18°C° 0.6 mm 1 m/S 549 mmHg 73%
15:00 +16°C° 0.6 mm 1 m/S 549 mmHg 79%
16:00 +15°C° 0.6 mm 1 m/S 548 mmHg 84%
17:00 +14°C° 0.4 mm 1 m/S 548 mmHg 88%
18:00 +13°C° 0.4 mm 1 m/S 548 mmHg 91%
19:00 +12°C° 0.4 mm 1 m/S 548 mmHg 95%
20:00 +11°C° 0 mm 1 m/S 548 mmHg 95%
21:00 +11°C° 0 mm 1 m/S 548 mmHg 95%
22:00 +11°C° 0 mm 1 m/S 548 mmHg 95%
23:00 +11°C° 0 mm 1 m/S 548 mmHg 95%

20 Mai, Donnerstag

Zeit Temperatur Niederschläge Wind Luftdruck Luftfeuchtigkeit
00:00 +11°C° 0 mm 1 m/S 548 mmHg 95%
01:00 +11°C° 0 mm 1 m/S 548 mmHg 95%
02:00 +11°C° 0 mm 1 m/S 547 mmHg 95%
03:00 +10°C° 0 mm 1 m/S 547 mmHg 96%
04:00 +10°C° 0 mm 1 m/S 547 mmHg 96%
05:00 +10°C° 0.1 mm 1 m/S 547 mmHg 95%
06:00 +11°C° 0.1 mm 1 m/S 548 mmHg 95%
07:00 +12°C° 0.1 mm 1 m/S 548 mmHg 94%
08:00 +13°C° 0.1 mm 1 m/S 549 mmHg 87%
09:00 +15°C° 0.1 mm 1 m/S 550 mmHg 80%
10:00 +17°C° 0.1 mm 2 m/S 551 mmHg 72%
11:00 +16°C° 0.5 mm 2 m/S 550 mmHg 74%
12:00 +16°C° 0.5 mm 2 m/S 550 mmHg 76%
13:00 +16°C° 0.5 mm 2 m/S 549 mmHg 78%
14:00 +16°C° 0.5 mm 2 m/S 549 mmHg 78%
15:00 +16°C° 0.5 mm 2 m/S 548 mmHg 78%
16:00 +16°C° 0.5 mm 1 m/S 548 mmHg 78%
17:00 +14°C° 0.1 mm 1 m/S 548 mmHg 83%
18:00 +13°C° 0.1 mm 1 m/S 548 mmHg 88%
19:00 +12°C° 0.1 mm 1 m/S 547 mmHg 93%
20:00 +11°C° 0 mm 1 m/S 548 mmHg 93%
21:00 +11°C° 0 mm 1 m/S 548 mmHg 93%
22:00 +11°C° 0 mm 1 m/S 548 mmHg 93%
23:00 +11°C° 0 mm 1 m/S 548 mmHg 93%

21 Mai, Freitag

Zeit Temperatur Niederschläge Wind Luftdruck Luftfeuchtigkeit
00:00 +11°C° 0 mm 1 m/S 548 mmHg 93%
01:00 +11°C° 0 mm 1 m/S 547 mmHg 93%
02:00 +11°C° 0.1 mm 1 m/S 547 mmHg 93%
03:00 +11°C° 0.1 mm 1 m/S 547 mmHg 93%
04:00 +11°C° 0.1 mm 1 m/S 547 mmHg 93%
05:00 +11°C° 0 mm 1 m/S 548 mmHg 93%
06:00 +11°C° 0 mm 1 m/S 548 mmHg 92%
07:00 +12°C° 0 mm 1 m/S 548 mmHg 92%
08:00 +13°C° 0.2 mm 1 m/S 549 mmHg 86%
09:00 +15°C° 0.2 mm 1 m/S 550 mmHg 80%
10:00 +16°C° 0.2 mm 1 m/S 551 mmHg 74%
11:00 +17°C° 0.5 mm 2 m/S 550 mmHg 75%
12:00 +17°C° 0.5 mm 2 m/S 550 mmHg 75%
13:00 +17°C° 0.5 mm 2 m/S 549 mmHg 76%
14:00 +16°C° 0.4 mm 2 m/S 549 mmHg 77%
15:00 +16°C° 0.4 mm 2 m/S 548 mmHg 79%
16:00 +16°C° 0.4 mm 2 m/S 548 mmHg 80%
17:00 +15°C° 0.2 mm 1 m/S 548 mmHg 84%
18:00 +13°C° 0.2 mm 1 m/S 548 mmHg 87%
19:00 +12°C° 0.2 mm 1 m/S 548 mmHg 91%
20:00 +12°C° 0 mm 1 m/S 548 mmHg 91%
21:00 +12°C° 0 mm 1 m/S 548 mmHg 92%
22:00 +11°C° 0 mm 1 m/S 549 mmHg 92%
23:00 +11°C° 0 mm 1 m/S 548 mmHg 93%
Mehr zeigen

Wir brauchen deine Erlaubnis

Meteoprog und unser Service Anbieter werden persönliche Daten aufbewahren, so wie Cookies, Geräte Bezeichnung oder ähnliche Technologien von deinem Gerät und Prozess, so wie Persönliche Daten Inhalte und Werbungen, genauso wie social Media und den Verkehr zu analysieren.

  • Aufbewahrung und/oder Zugang zu deiner Geräte Informationen.

    Cookies, Geräte Bezeichnung oder andere Informationen, können aufbewahrt oder Zugang zu deinem Gerät erhalten, für den Grund, der oben angegeben wird.

  • Personalisierte Werbung und Inhalte, Messungen, Einblick in das Publikum und Produkt Entwicklung.

    Werbungen und Inhalte können personalisiert werden, basierend auf ein Profil. Mehr Daten können besser personalisierte Werbungen und Inhalte hinzufügen. Werbung und Inhalte können gezeigt und gemessen werden. Einblicke über das Publikum, welche die Werbung gesehen haben und den Inhalt, können abgeleitet werden. So wie Daten können genutzt werden, um es zu verbessern oder die Benutzer Erfahrung zu verbessern das System und die Software.

Wenn du “Ich stimme zu” klickst, erlaubst du uns, die Cookies zu benutzen die Geräte Bezeichnung, den Web oder ähnliche Technologien zu benutzen. Deine Settings, können in deinem Gerät bei deinem Browser geändert werden.

Für den bestimmten Zweck, berechtigten Interessen beruhen darauf, mehr als auf den Inhalt. Du kannst mehr darüber in unseren Privaten und Cookie Politik lesen.